Theta_e
331 330 332 338 336 334 338 342 355 358 360 359 356 356 355 353 350 352 349 351 351 346
331 332 333 343 349 340 348 343 348 353 355 356 356 355 354 348 350 351 351 352 352 347
330 331 334 337 343 346 350 349 350 350 353 354 353 352 353 352 353 352 351 350 350 348
331 332 334 336 339 343 350 347 345 347 350 350 350 352 354 355 353 352 352 351 348 346
332 333 334 337 339 342 343 345 345 346 348 348 348 353 354 353 352 351 349 346 345 343
328 332 333 340 343 342 341 344 347 347 346 346 348 352 353 352 350 349 346 345 344 344
325 329 332 337 343 342 341 344 346 346 346 346 348 350 351 350 349 347 346 347 347 344
325 328 330 333 343 342 341 345 346 346 345 347 348 348 349 348 348 346 345 346 343 344
324 326 329 333 342 340 341 345 345 345 345 348 346 313 318 339 345 345 342 342 341 340
324 326 327 331 340 339 346 349 346 346 347 348 347 310 313 318 345 343 342 341 339 337
323 326 324 332 338 343 345 349 350 349 348 348 341 307 308 313 344 342 340 340 340 339
323 324 323 331 336 339 340 345 349 348 348 347 329 303 307 322 339 338 338 339 338 337
325 323 327 333 333 336 340 342 345 344 344 327 329 300 305 320 335 336 335 335 333 308
324 322 330 334 336 337 336 337 337 336 336 332 325 317 302 308 335 334 332 331 329 330
Wind_Speed
12 9 11 12 12 12 12 12 11 13 12 15 14 14 13 10 11 12 10 13 11 8
12 13 13 15 12 11 12 11 11 13 15 16 16 16 14 11 13 10 11 11 11 9
13 14 14 14 15 14 12 13 13 15 16 16 16 16 15 12 12 12 10 9 12 10
15 15 15 14 15 14 13 14 16 15 16 17 17 16 15 13 14 14 12 11 11 12
15 16 16 16 17 16 15 16 17 17 17 17 17 16 16 15 14 14 13 12 13 13
16 16 16 18 17 17 16 16 17 17 18 18 17 17 15 14 13 13 14 13 13 12
17 17 16 19 17 17 17 16 17 18 18 17 17 16 15 14 13 13 11 12 13 11
18 17 18 19 18 17 17 17 18 17 16 15 14 13 15 14 13 13 12 12 10 10
18 18 17 19 17 17 18 18 17 16 16 16 12 15 12 14 13 13 13 11 9 8
17 19 14 19 17 18 18 16 17 17 17 17 13 17 15 12 12 11 11 10 10 9
18 16 13 18 18 17 16 16 15 17 17 14 12 16 16 13 12 11 11 10 10 9
18 12 16 15 13 12 14 15 15 15 16 16 12 13 16 13 12 11 10 8 8 8
17 10 14 12 13 13 14 14 15 16 15 16 16 8 13 10 9 10 8 7 6 8
12 8 12 11 10 11 12 14 15 16 15 14 14 10 9 3 8 8 8 8 7 7
Wind_Direction
280 270 265 254 259 257 243 235 217 202 205 205 212 205 195 201 215 205 207 207 219 212
282 271 271 271 260 245 246 239 225 201 202 206 204 203 185 206 203 194 202 201 202 218
288 279 269 265 259 257 252 235 233 206 204 198 198 194 187 196 190 188 194 199 194 203
293 287 278 267 263 258 248 237 228 214 206 197 193 190 191 190 171 188 192 203 190 198
292 287 281 265 260 253 242 229 223 212 202 192 190 189 188 183 176 192 195 192 191 200
287 287 282 274 262 251 240 226 217 205 195 192 189 185 185 181 183 190 193 193 200 198
283 286 282 280 262 248 234 218 210 202 194 189 183 178 181 180 184 186 190 198 205 198
282 281 278 275 260 243 229 214 207 197 190 180 175 179 179 178 180 180 189 193 190 192
282 281 274 276 250 234 220 209 201 191 181 175 181 134 149 166 173 177 181 181 183 173
279 275 271 276 238 222 210 198 190 183 176 172 154 135 139 153 169 176 184 182 180 195
277 279 284 261 226 210 198 188 178 174 170 163 140 148 154 158 169 182 176 181 192 206
274 272 281 226 217 195 187 180 168 165 156 153 151 153 144 172 161 168 177 187 198 199
275 255 261 196 193 180 180 161 155 154 151 140 141 147 155 186 182 165 173 181 162 50
267 279 229 182 163 160 148 144 142 129 132 131 133 148 153 210 172 173 181 176 176 157